STARLINK-34137, 63953

Orbit data source: Space-Track

STARLINK-34137, 63953 is a payload satellite owned by SpaceX/Seattle (US) in LEO that was launched on Tue, 13 May 2025 UTC via an FALCON 9 launch vehicle from the Air Force Eastern Test Range (AFETR). Payload-class satellites include a variety of spacecraft equipped with specific instruments for various scientific and technological missions. These include communications satellites like Starlink; space stations such as the ISS; scientific satellites like the Hubble; Earth observation satellites from companies like Planet Labs, Umbra, and HawkEye 360; GPS; miniature CubeSats for education and research; and military/defense satellites.

Loading next visibility...
Identifier
63953, 2025-099B
Orbit
LEO
Country
Flag of USUS
Related business
Manufacturer
SpaceX/Seattle
Mission
Operational Commercial Communications
Bus & Motor
STARLINK V2MO, Unknown motor
Mass
575 kg wet, ~530 kg dry
Launch date (UTC)
2025-05-13 (7 months ago)
Launch vehicle
FALCON 9
Launch site
Air Force Eastern Test Range (AFETR)
Object type
Payload
Rocket body
Debris
Shape & HBR
Box + 2 Pan, 17.7 m
Radar Cross Section
36.964 m², Large (>1 m²)

Expand to show TLE details & history
Last TLE update: 1 day ago

TLE from 1 day ago
0 STARLINK-34137
1 63953U 25099B   25346.25444585  .00035207  00000-0  12845-2 0  9997
2 63953  43.0020 310.0643 0001346 270.2598  89.8099 15.27537403 33962
Epoch: 2025-12-12T06:06Z
TLE epoch observation values (Epoch: 2025-12-12T06:06:24.121Z)
Latitude
-0.00004°
Longitude
137.26504°
Altitude
482.949 km
Speed
7.626 km/s
True Right ascension
20h 40m 15s
True Declination
0° 00' 00"
Sunlit
Object was in daylight at epoch
Visualization orbit readout
Latitude
Unknown
Longitude
Unknown
Altitude
Unknown
Speed
Unknown
Apparent Right ascension
Unknown
Apparent Declination
Unknown
Sunlit
N/A
Visualization observer readout
Local Sidereal Time
09:17:37
Azimuth
Unknown
Elevation
Unknown
Doppler factor
Unknown
Orbital elements
Apogee altitude
486.045 km
Perigee altitude
484.198 km
Semi-major axis
6,863.258 km
Eccentricity
0.00013
Inclination
43.002°
RAAN
310.0643°
Arg. of periapsis
270.2598°
True anomaly
89.82532°
Mean anomaly
89.8099°
Eccentric anomaly
89.81761°
Mean motion
3.81722 °/min
Orbital period
94.31 mins
BSTAR
0.0012845
Loading maneuver chart data...
Computing Atmospheric mass density...
Loading historical data...
Loading historical data...
Loading historical data...
Loading historical data...
Loading historical data...
Loading historical data...
Loading historical data...

Documentation

Showing up to 5 results
|